�������l�o���
Date,Time,MP-1(��Sv/h),MP-2(��Sv/h),MP-3(��Sv/h),MP-4(��Sv/h),MP-5(��Sv/h),MP-6(��Sv/h),MP-7(��Sv/h),MP-8(��Sv/h),����,����(m/s),���J
2022/08/18,00:00,0.591,0.840,0.533,1.013,0.723,0.340,0.587,0.552,��,5.6,�L
2022/08/18,00:10,0.592,0.839,0.531,1.015,0.723,0.339,0.586,0.552,��,5.2,�L
2022/08/18,00:20,0.592,0.837,0.533,1.014,0.721,0.340,0.586,0.552,��,5.1,�L
2022/08/18,00:30,0.591,0.837,0.532,1.013,0.720,0.338,0.585,0.553,��,4.7,�L
2022/08/18,00:40,0.590,0.834,0.532,1.012,0.721,0.339,0.585,0.552,��,4.3,�L
2022/08/18,00:50,0.591,0.834,0.530,1.012,0.719,0.339,0.586,0.551,��,3.4,�L
2022/08/18,01:00,0.591,0.836,0.530,1.014,0.717,0.339,0.584,0.554,��,3.6,�L
2022/08/18,01:10,0.589,0.835,0.530,1.011,0.720,0.339,0.585,0.551,��,3.5,�L
2022/08/18,01:20,0.589,0.836,0.531,1.012,0.718,0.338,0.585,0.552,��,4.1,��
2022/08/18,01:30,0.590,0.834,0.530,1.011,0.719,0.338,0.586,0.551,��,3.3,��
2022/08/18,01:40,0.590,0.836,0.529,1.011,0.717,0.338,0.585,0.550,��,3.2,�L
2022/08/18,01:50,0.589,0.836,0.530,1.012,0.718,0.337,0.584,0.551,��,2.8,�L
2022/08/18,02:00,0.589,0.835,0.530,1.012,0.721,0.338,0.585,0.554,��쓌,2.8,�L
2022/08/18,02:10,0.590,0.833,0.530,1.010,0.718,0.337,0.584,0.553,��,2.6,�L
2022/08/18,02:20,0.589,0.834,0.527,1.009,0.718,0.336,0.585,0.549,��쓌,2.6,�L
2022/08/18,02:30,0.589,0.833,0.528,1.011,0.718,0.337,0.585,0.551,��쓌,2.6,��
2022/08/18,02:40,0.588,0.834,0.528,1.011,0.718,0.335,0.584,0.551,��,3.1,��
2022/08/18,02:50,0.588,0.835,0.529,1.012,0.717,0.337,0.585,0.552,��,2.9,��
2022/08/18,03:00,0.588,0.834,0.527,1.008,0.718,0.338,0.586,0.552,��,2.5,��
2022/08/18,03:10,0.587,0.835,0.530,1.010,0.717,0.335,0.584,0.550,��,1.9,�L
2022/08/18,03:20,0.589,0.833,0.529,1.009,0.717,0.336,0.586,0.552,��쓌,1.4,�L
2022/08/18,03:30,0.589,0.833,0.529,1.011,0.718,0.336,0.586,0.551,��쓌,2.0,�L
2022/08/18,03:40,0.589,0.833,0.528,1.012,0.718,0.337,0.586,0.551,��쓌,2.5,�L
2022/08/18,03:50,0.589,0.833,0.527,1.010,0.718,0.337,0.586,0.553,��쓌,2.3,�L
2022/08/18,04:00,0.589,0.832,0.528,1.009,0.718,0.337,0.586,0.550,��쓌,2.6,�L
2022/08/18,04:10,0.587,0.833,0.529,1.010,0.717,0.337,0.587,0.552,��쓌,2.8,�L
2022/08/18,04:20,0.587,0.830,0.528,1.011,0.715,0.337,0.586,0.551,��쓌,1.7,��
2022/08/18,04:30,0.588,0.832,0.528,1.008,0.716,0.338,0.585,0.552,��쓌,1.7,��
2022/08/18,04:40,0.587,0.832,0.527,1.008,0.715,0.337,0.586,0.551,�쓌,1.7,��
2022/08/18,04:50,0.586,0.833,0.528,1.012,0.716,0.337,0.586,0.552,�쓌,2.0,��
2022/08/18,05:00,0.588,0.834,0.529,1.011,0.716,0.336,0.587,0.552,�쓌,1.9,��
2022/08/18,05:10,0.588,0.834,0.527,1.011,0.717,0.337,0.586,0.550,��쓌,1.4,�L
2022/08/18,05:20,0.589,0.832,0.527,1.010,0.715,0.337,0.585,0.551,��쓌,1.5,�L
2022/08/18,05:30,0.587,0.831,0.529,1.010,0.718,0.335,0.588,0.551,�쓌,2.3,�L
2022/08/18,05:40,0.586,0.832,0.528,1.011,0.717,0.337,0.586,0.551,��쓌,0.6,�L
2022/08/18,05:50,0.588,0.834,0.528,1.008,0.718,0.334,0.587,0.553,�쓌,0.8,�L
2022/08/18,06:00,0.587,0.835,0.528,1.010,0.719,0.336,0.586,0.552,���쓌,0.6,�L
2022/08/18,06:10,0.587,0.834,0.530,1.009,0.716,0.336,0.586,0.553,-,CALM,��
2022/08/18,06:20,0.589,0.835,0.528,1.009,0.717,0.337,0.586,0.552,�쓌,0.8,�L
2022/08/18,06:30,0.588,0.832,0.528,1.011,0.718,0.337,0.587,0.553,���쓌,1.2,�L
2022/08/18,06:40,0.588,0.835,0.528,1.011,0.719,0.336,0.587,0.552,���k��,0.8,�L
2022/08/18,06:50,0.587,0.827,0.525,1.007,0.713,0.337,0.584,0.549,��,1.9,�L
2022/08/18,07:00,0.586,0.825,0.525,1.002,0.711,0.336,0.584,0.549,�쓌,1.1,�L
2022/08/18,07:10,0.587,0.821,0.525,0.999,0.710,0.337,0.585,0.548,��쓌,1.4,�L
2022/08/18,07:20,0.587,0.824,0.524,1.000,0.710,0.338,0.585,0.548,��쓌,1.5,�L
2022/08/18,07:30,0.585,0.821,0.526,1.001,0.711,0.337,0.583,0.549,��,1.7,�L
2022/08/18,07:40,0.585,0.821,0.525,0.999,0.712,0.337,0.584,0.548,��,0.9,�L
2022/08/18,07:50,0.585,0.821,0.525,0.997,0.711,0.338,0.583,0.547,��,2.0,�L
2022/08/18,08:00,0.586,0.818,0.523,0.996,0.711,0.337,0.583,0.549,���쐼,1.4,�L
2022/08/18,08:10,0.583,0.819,0.524,0.997,0.712,0.337,0.582,0.548,���쐼,1.4,�L
2022/08/18,08:20,0.583,0.820,0.524,0.996,0.709,0.336,0.583,0.547,�쐼,1.1,�L
2022/08/18,08:30,0.583,0.821,0.524,0.995,0.712,0.336,0.582,0.547,��,1.7,�L
2022/08/18,08:40,0.583,0.820,0.523,0.995,0.710,0.338,0.584,0.549,��쓌,3.0,�L
2022/08/18,08:50,0.582,0.821,0.523,0.994,0.709,0.336,0.583,0.548,��쓌,4.0,�L
2022/08/18,09:00,0.583,0.819,0.522,0.996,0.710,0.335,0.584,0.549,��쓌,5.2,�L
2022/08/18,09:10,0.582,0.819,0.524,0.996,0.710,0.336,0.582,0.549,��,6.8,�L
2022/08/18,09:20,0.582,0.819,0.525,0.995,0.710,0.335,0.583,0.548,��쓌,8.5,�L
2022/08/18,09:30,0.582,0.819,0.526,0.994,0.711,0.336,0.582,0.548,��쓌,7.5,�L
2022/08/18,09:40,0.582,0.819,0.523,0.996,0.710,0.336,0.584,0.549,��쓌,9.5,�L
2022/08/18,09:50,0.582,0.818,0.523,0.996,0.709,0.337,0.583,0.548,��쓌,11.4,�L
2022/08/18,10:00,0.582,0.819,0.523,0.997,0.709,0.337,0.584,0.549,��쓌,11.3,�L
2022/08/18,10:10,0.583,0.819,0.522,0.995,0.709,0.338,0.584,0.549,��,12.0,�L
2022/08/18,10:20,0.584,0.818,0.522,0.993,0.710,0.337,0.583,0.549,��,10.9,�L
2022/08/18,10:30,0.582,0.817,0.521,0.996,0.709,0.337,0.584,0.547,��,9.2,�L
2022/08/18,10:40,0.584,0.819,0.523,0.994,0.709,0.337,0.584,0.547,��,5.1,��
2022/08/18,10:50,0.584,0.819,0.523,0.995,0.710,0.337,0.584,0.548,��,3.2,��
2022/08/18,11:00,0.583,0.818,0.523,0.995,0.710,0.337,0.585,0.548,��쓌,4.0,��
2022/08/18,11:10,0.584,0.817,0.522,0.996,0.710,0.337,0.584,0.548,��,3.7,��
2022/08/18,11:20,0.585,0.819,0.522,0.995,0.710,0.337,0.585,0.547,��쓌,5.8,��
2022/08/18,11:30,0.585,0.819,0.523,0.994,0.711,0.337,0.583,0.551,��,10.4,��
2022/08/18,11:40,0.585,0.822,0.524,0.993,0.711,0.339,0.585,0.550,��,8.5,��
2022/08/18,11:50,0.585,0.822,0.523,0.995,0.713,0.337,0.584,0.550,��,6.8,��
2022/08/18,12:00,0.586,0.823,0.523,0.993,0.714,0.337,0.586,0.549,��,6.2,��
2022/08/18,12:10,0.587,0.822,0.525,0.993,0.713,0.337,0.585,0.550,��,7.6,��
2022/08/18,12:20,0.586,0.821,0.526,0.995,0.714,0.338,0.585,0.548,��,8.8,��
2022/08/18,12:30,0.586,0.823,0.524,0.996,0.715,0.337,0.584,0.550,��,7.4,��
2022/08/18,12:40,0.587,0.824,0.527,0.997,0.715,0.337,0.583,0.550,��,8.4,��
2022/08/18,12:50,0.585,0.824,0.526,0.995,0.716,0.339,0.585,0.551,��,7.2,��
2022/08/18,13:00,0.588,0.824,0.527,0.996,0.716,0.338,0.584,0.550,��,8.3,��
2022/08/18,13:10,0.589,0.825,0.526,0.998,0.715,0.339,0.584,0.549,��,9.1,��
2022/08/18,13:20,0.590,0.827,0.528,0.995,0.716,0.337,0.586,0.551,��,8.1,��
2022/08/18,13:30,0.589,0.826,0.526,0.996,0.716,0.338,0.584,0.552,��,6.0,��
2022/08/18,13:40,0.588,0.826,0.526,0.995,0.717,0.338,0.585,0.552,��쐼,4.7,��
2022/08/18,13:50,0.590,0.825,0.528,0.997,0.718,0.339,0.586,0.553,�쐼,6.1,�L
2022/08/18,14:00,0.590,0.826,0.527,0.998,0.716,0.339,0.586,0.551,��,8.5,��
2022/08/18,14:10,0.590,0.824,0.529,1.002,0.718,0.338,0.585,0.550,��,6.2,��
2022/08/18,14:20,0.590,0.825,0.529,1.000,0.719,0.340,0.585,0.551,��,5.9,��
2022/08/18,14:30,0.588,0.827,0.527,1.000,0.719,0.339,0.585,0.552,���쐼,2.8,�L
2022/08/18,14:40,0.590,0.827,0.525,1.002,0.718,0.339,0.584,0.551,���쐼,3.0,�L
2022/08/18,14:50,0.587,0.820,0.524,0.997,0.714,0.340,0.583,0.550,���k��,2.8,�L
2022/08/18,15:00,0.585,0.818,0.522,0.995,0.713,0.340,0.585,0.551,��,2.3,�L
2022/08/18,15:10,0.586,0.819,0.524,0.996,0.714,0.340,0.583,0.551,�쓌,1.2,�L
2022/08/18,15:20,0.585,0.820,0.524,0.996,0.711,0.339,0.583,0.551,��쓌,2.5,�L
2022/08/18,15:30,0.586,0.819,0.523,0.997,0.712,0.341,0.584,0.551,��,2.8,�L
2022/08/18,15:40,0.587,0.820,0.523,0.998,0.712,0.340,0.583,0.551,��,2.3,�L
2022/08/18,15:50,0.588,0.818,0.524,0.994,0.712,0.340,0.584,0.551,��쐼,3.1,�L
2022/08/18,16:00,0.587,0.818,0.525,0.996,0.714,0.339,0.584,0.550,��쐼,4.6,�L
2022/08/18,16:10,0.585,0.817,0.525,0.996,0.712,0.340,0.585,0.551,�쐼,6.8,��
2022/08/18,16:20,0.585,0.817,0.522,0.997,0.713,0.340,0.585,0.551,�쐼,7.6,��
2022/08/18,16:30,0.586,0.820,0.525,0.995,0.712,0.340,0.584,0.551,���쐼,7.5,��
2022/08/18,16:40,0.586,0.819,0.522,0.996,0.713,0.340,0.584,0.552,��,7.1,��
2022/08/18,16:50,0.586,0.818,0.523,0.996,0.713,0.341,0.583,0.553,���쐼,7.2,��
2022/08/18,17:00,0.586,0.819,0.523,0.994,0.715,0.340,0.585,0.552,��,6.8,��
2022/08/18,17:10,0.587,0.820,0.522,0.995,0.713,0.340,0.584,0.553,��,8.9,��
2022/08/18,17:20,0.585,0.820,0.523,0.997,0.711,0.339,0.584,0.552,��,7.6,��
2022/08/18,17:30,0.585,0.821,0.522,0.999,0.713,0.339,0.583,0.553,��,6.4,��
2022/08/18,17:40,0.584,0.818,0.524,0.995,0.713,0.338,0.585,0.553,���k��,6.4,��
2022/08/18,17:50,0.585,0.818,0.524,0.999,0.712,0.341,0.585,0.554,���k��,6.1,��
2022/08/18,18:00,0.583,0.820,0.523,0.997,0.714,0.339,0.584,0.554,��,5.2,��
2022/08/18,18:10,0.587,0.820,0.525,0.996,0.712,0.339,0.584,0.554,���k��,7.9,��
2022/08/18,18:20,0.585,0.820,0.523,0.995,0.714,0.340,0.584,0.554,���k��,6.4,��
2022/08/18,18:30,0.585,0.823,0.521,0.997,0.713,0.340,0.584,0.553,��,5.2,��
2022/08/18,18:40,0.584,0.822,0.522,0.997,0.715,0.340,0.585,0.554,���k��,5.6,��
2022/08/18,18:50,0.584,0.822,0.522,0.999,0.716,0.340,0.586,0.555,���k��,8.8,��
2022/08/18,19:00,0.586,0.823,0.524,0.998,0.716,0.339,0.585,0.554,���k��,8.4,��
2022/08/18,19:10,0.585,0.823,0.525,0.999,0.716,0.340,0.587,0.554,���k��,7.5,��
2022/08/18,19:20,0.584,0.822,0.524,1.001,0.715,0.340,0.586,0.555,�k��,8.0,��
2022/08/18,19:30,0.584,0.823,0.525,1.001,0.714,0.338,0.585,0.556,�k�k��,4.3,��
2022/08/18,19:40,0.585,0.825,0.525,1.000,0.717,0.338,0.587,0.552,�k,0.9,��
2022/08/18,19:50,0.585,0.824,0.524,1.001,0.716,0.338,0.586,0.555,�쐼,1.2,��
2022/08/18,20:00,0.584,0.824,0.527,1.002,0.718,0.339,0.585,0.555,���k��,4.3,��
2022/08/18,20:10,0.585,0.824,0.524,1.002,0.716,0.340,0.585,0.554,��,4.2,��
2022/08/18,20:20,0.586,0.824,0.524,1.002,0.715,0.338,0.588,0.556,���쐼,2.2,��
2022/08/18,20:30,0.584,0.825,0.525,1.002,0.716,0.340,0.587,0.555,���쐼,2.6,��
2022/08/18,20:40,0.587,0.823,0.525,0.999,0.716,0.340,0.586,0.553,��,2.0,��
2022/08/18,20:50,0.584,0.824,0.525,1.000,0.717,0.339,0.587,0.555,�k,1.2,��
2022/08/18,21:00,0.585,0.822,0.525,1.004,0.715,0.339,0.585,0.555,�k�k��,2.3,��
2022/08/18,21:10,0.586,0.824,0.526,0.999,0.716,0.340,0.586,0.555,�k��,4.9,��
2022/08/18,21:20,0.586,0.824,0.526,1.002,0.717,0.339,0.585,0.556,�k��,3.6,��
2022/08/18,21:30,0.587,0.825,0.525,1.002,0.718,0.338,0.587,0.554,�k��,2.3,��
2022/08/18,21:40,0.587,0.825,0.524,1.002,0.717,0.339,0.588,0.555,�k��,1.5,��
2022/08/18,21:50,0.586,0.825,0.526,1.003,0.718,0.339,0.587,0.554,���k��,2.8,��
2022/08/18,22:00,0.587,0.823,0.526,1.004,0.716,0.339,0.588,0.554,�k��,1.4,��
2022/08/18,22:10,0.586,0.824,0.525,1.002,0.718,0.341,0.587,0.554,�k�k��,1.9,��
2022/08/18,22:20,0.585,0.824,0.525,1.002,0.718,0.340,0.588,0.553,�k�k��,4.0,��
2022/08/18,22:30,0.585,0.826,0.526,1.001,0.718,0.339,0.587,0.554,�k�k��,4.3,��
2022/08/18,22:40,0.586,0.823,0.525,1.002,0.718,0.339,0.586,0.556,�k�k��,5.0,��
2022/08/18,22:50,0.587,0.824,0.526,1.004,0.717,0.339,0.587,0.555,�k��,4.9,��
2022/08/18,23:00,0.588,0.825,0.526,1.002,0.719,0.339,0.587,0.554,�k��,5.1,��
2022/08/18,23:10,0.586,0.824,0.526,1.003,0.717,0.338,0.587,0.555,�k��,4.8,��
2022/08/18,23:20,0.587,0.825,0.527,1.003,0.718,0.338,0.587,0.556,�k��,5.2,��
2022/08/18,23:30,0.584,0.825,0.526,1.002,0.717,0.339,0.587,0.555,�k��,5.4,��
2022/08/18,23:40,0.586,0.825,0.525,1.003,0.717,0.338,0.586,0.555,���k��,6.0,��
2022/08/18,23:50,0.584,0.827,0.525,1.004,0.717,0.338,0.588,0.554,���k��,5.0,��
